Flag for Netherlands Weather past 2 weeks in Tilburg, Netherlands

Now
46 °F

Cool.


Feels Like: 43 °F
Forecast: 39 / 58 °F
Wind: 7 mph from Northwest

Location: Gilze-Rijen


UV Index: 3 (Moderate)

Visibility: N/A


Pressure: 29.95 "Hg

Humidity: 87%

Dew point: 43 °F

Location of TilburgLocation

Historic Weather in Tilburg

°F

Tilburg temperature yesterday

Maximum temperature yesterday: 64 °F (at 3:55 PM)
Minimum temperature yesterday: 39 °F (at 12:55 AM)
Average temperature yesterday: 52 °F

Past Weeks' High & Low Weather Summary

 TemperatureHumidityPressure
High73 °F (Apr 3, 3:25 PM)100% (Apr 7, 3:55 AM)30.45 "Hg (Apr 7, 3:55 AM)
Low32 °F (Apr 16, 4:55 AM)30% (Apr 17, 3:55 PM)29.56 "Hg (Apr 3, 6:55 AM)
Average52 °F73%30.05 "Hg
* Reported Apr 3 1:25 AM — Apr 18 1:55 AM, Tilburg, Weather by CustomWeather, © 2014

Note: Actual official high and low records may vary slightly from our data, if they occured in-between our weather recording intervals... More about our weather records

Advertising

Historic Weather Conditions — Data for Previous 24 hours

 ConditionsComfort  
Time TempWeatherWind HumidityBarometerVisibility
1:55 AM
Apr 18
48 °FPassing clouds.8 mph94%29.95 "HgN/A
1:25 AM48 °FPartly cloudy.7 mph94%29.95 "HgN/A
1:00 AM48 °FFog.5 mph94%29.95 "Hg6 mi
12:55 AM48 °FFog.5 mph94%29.95 "Hg6 mi
12:25 AM48 °FPartly cloudy.6 mph94%29.98 "HgN/A
11:55 PM
Apr 17
48 °FMostly cloudy.6 mph94%29.98 "HgN/A
11:25 PM50 °FDrizzle. Mostly cloudy.12 mph88%29.98 "Hg4 mi
10:59 PM50 °FDrizzle. Mostly cloudy.8 mph94%29.98 "Hg4 mi
10:25 PM50 °FLight rain. Passing clouds.6 mph94%29.98 "Hg3 mi
10:04 PM50 °FLight rain. Overcast.9 mph94%29.98 "Hg4 mi
9:25 PM54 °FLight rain. Broken clouds.14 mph72%29.98 "HgN/A
8:55 PM55 °FPartly sunny.12 mph63%29.98 "HgN/A
8:25 PM57 °FMore clouds than sun.16 mph55%29.95 "HgN/A
7:55 PM57 °FBroken clouds.12 mph51%29.98 "HgN/A
6:55 PM61 °FOvercast.9 mph39%29.98 "HgN/A
6:25 PM63 °FMostly cloudy.8 mph37%29.98 "HgN/A
5:55 PM63 °FPartly sunny.8 mph37%29.98 "HgN/A
5:25 PM63 °FPartly sunny.9 mph34%30.01 "HgN/A
4:55 PM63 °FPartly sunny.12 mph32%30.01 "HgN/A
4:25 PM64 °FPartly sunny.12 mph30%30.01 "HgN/A
3:55 PM64 °FOvercast.12 mph30%30.04 "HgN/A
3:25 PM63 °FPassing clouds.13 mph32%30.04 "HgN/A
2:55 PM63 °FPartly sunny.13 mph32%30.07 "HgN/A
2:25 PM63 °FScattered clouds.16 mph34%30.07 "HgN/A
1:55 PM63 °FPassing clouds.10 mph34%30.09 "HgN/A
1:25 PM61 °FRefreshingly cool.10 mph36%30.12 "HgN/A
12:55 PM59 °FRefreshingly cool.10 mph36%30.12 "HgN/A
12:25 PM59 °FPassing clouds.10 mph39%30.15 "HgN/A
11:55 AM57 °FPassing clouds.9 mph41%30.15 "HgN/A
11:25 AM57 °FOvercast.10 mph44%30.18 "HgN/A
10:55 AM54 °FOvercast.10 mph47%30.18 "HgN/A
10:25 AM54 °FOvercast.10 mph51%30.21 "HgN/A
9:55 AM54 °FPassing clouds.12 mph47%30.18 "HgN/A
9:25 AM52 °FPartly sunny.12 mph54%30.21 "HgN/A
8:55 AM48 °FCool.9 mph58%30.21 "HgN/A
8:25 AM45 °FPassing clouds.7 mph66%30.21 "HgN/A
7:55 AM45 °FScattered clouds.7 mph66%30.21 "HgN/A
7:25 AM41 °FQuite cool.7 mph70%30.21 "HgN/A
6:55 AM41 °FQuite cool.7 mph70%30.21 "HgN/A
6:25 AM41 °FPassing clouds.7 mph70%30.21 "HgN/A
5:55 AM41 °FQuite cool.7 mph70%30.24 "HgN/A
4:55 AM43 °FQuite cool.8 mph66%30.24 "HgN/A
4:25 AM43 °FPassing clouds.9 mph66%30.24 "HgN/A
3:55 AM43 °FQuite cool.9 mph66%30.24 "HgN/A
3:25 AM45 °FQuite cool.8 mph61%30.27 "HgN/A
Weather by CustomWeather, © 2014

See weather overview